This demonstration page uses our WeatherBlox Daily Observations layout. Learn more.

Left ArrowRight Arrow

39.08367, -84.50855

Hourly Observations for June 2, 2020

Temp ( °F °C ) Dew Point ( °F °C ) Humidity (%) Winds ( mph kmh ) Pressure ( in mb ) Visibility ( mi km ) Precip ( " mm )
12:53 am 00:53 Mostly Cloudy 64 17.8 50 10 60 60 S 3 6 30.12 1020 10 16.0934 0 0
1:53 am 01:53 Clear 62 16.7 55 12.8 78 78 Calm 30.11 1020 10 16.0934 0 0
2:53 am 02:53 Clear 59 15 54 12.2 83 83 Calm 30.1 1019 10 16.0934 0 0
3:53 am 03:53 Clear 59 15 53 11.7 81 81 Calm 30.1 1019 10 16.0934 0 0
4:53 am 04:53 Clear 57 13.9 53 11.7 87 87 Calm 30.09 1019 10 16.0934 0 0
5:53 am 05:53 Clear 54 12.2 52 11.1 93 93 Calm 30.1 1019 10 16.0934 0 0
6:53 am 06:53 Sunny 57 13.9 54 12.2 90 90 Calm 30.09 1019 10 16.0934 0 0
7:53 am 07:53 Sunny 58 14.4 56 13.3 93 93 Calm 30.09 1019 10 16.0934 0 0
8:53 am 08:53 Sunny 67 19.4 55 12.8 66 66 Calm 30.09 1019 10 16.0934 0 0
9:53 am 09:53 Sunny 75 23.9 52 11.1 45 45 W 9 15 30.08 1019 10 16.0934 0 0
10:53 am 10:53 Sunny 79 26.1 55 12.8 44 44 W 9 15 30.06 1018 10 16.0934 0 0
11:53 am 11:53 Sunny 81 27.2 53 11.7 38 38 WSW 14 22 30.04 1017 10 16.0934 0 0
12:53 pm 12:53 Sunny with Light Rain 83 28.3 56 13.3 40 40 WSW 12 19 30.03 1017 10 16.0934 0.001 0.001
1:53 pm 13:53 Sunny 85 29.4 57 13.9 39 39 WSW 12 19 30 1016 10 16.0934 0.001 0.001
2:53 pm 14:53 Sunny 87 30.6 57 13.9 36 36 W 15 24 29.98 1015 10 16.0934 0 0
3:53 pm 15:53 Sunny 87 30.6 56 13.3 35 35 WSW 14 22 29.97 1015 10 16.0934 0 0
4:53 pm 16:53 Sunny 88 31.1 58 14.4 36 36 WSW 18 30 29.95 1014 10 16.0934 0 0
5:53 pm 17:53 Sunny 87 30.6 59 15 39 39 SW 12 19 29.93 1014 10 16.0934 0 0
6:53 pm 18:53 Sunny 86 30 58 14.4 39 39 SW 15 24 29.93 1013 10 16.0934 0 0
7:53 pm 19:53 Sunny 84 28.9 59 15 43 43 SW 10 17 29.93 1014 10 16.0934 0 0
8:53 pm 20:53 Sunny 80 26.7 59 15 49 49 SSW 10 17 29.93 1014 10 16.0934 0 0
9:53 pm 21:53 Clear 78 25.6 59 15 52 52 SW 10 17 29.93 1014 10 16.0934 0 0
10:53 pm 22:53 Clear 74 23.3 58 14.4 57 57 SSW 9 15 29.93 1014 10 16.0934 0 0
11:53 pm 23:53 Clear 75 23.9 57 13.9 54 54 SW 8 13 29.94 1014 10 16.0934 0 0

Powered by AerisWeather